Lucky 17 - last race 325 mi

Station: BRUNINA NEB - A Race

Distance: 321.925 Miles

Release: 21-Nov-2022 07:30

Weather Release: clear    Arrival: same

Wind at Release: lt/varible     Wind at Arrival: sw. 5-10

Temp at Release: °    Temp at Arrival: °

Lofts: 72

Birds: 133

Clocked: 105

points have been re calculated
Drops Pos Breeder Pigeon Name Color Sex Team Ent Arrival Speed To Win Elg Pd
4300 1 Dave Conover - PA 7116-IF22-PHX (HARRY) 2357-8184 (LUDOx2 DC H 1 1 14:23:53.00 1368.956 00:00:00 Yes
2580 2 Shallow Pockets Loft - OK 66210-AU22-ARPU GRIZ H 1 1 14:29:05.00 1351.970 00:05:12 Yes
34401gr 3 Hollywood Lou Loft - FL 0855-AU22-HL GRIZ H 1 1 14:36:52.00 1327.318 00:12:59 Yes
1290 4 Ecker Ranch - MD 1881-AU22-GSV BCWF H 1 1 14:50:04.00 1287.505 00:26:11 Yes
860 5 Walt Stammer - CA 1054-AU22-PR DC H 1 1 14:50:06.00 1287.407 00:26:13 Yes
688 6 Dons Loft - SC 0326-IF22-CVR Bourg & Fab GRIZ H 1 1 14:50:10.00 1287.212 00:26:17 Yes
602,860 7 Cbs & Steve - OK 0566-AU22-CBS BB H 1 1 14:50:14.00 1287.017 00:26:21 Yes
516,2580 8 M & L Loft - TX 97009-AU22-ARPU BB H 1 1 14:50:17.00 1286.871 00:26:24 Yes
430 9 Yupeng Yang - MN 0220-AU22-VIK BBPD H 1 1 14:51:44.00 1282.647 00:27:51 Yes
430,1720 10 Radd - OK 5685-AU22-ARPU 2438/4240 Hi 2+ DC H 1 1 14:52:30.00 1280.425 00:28:37 Yes
387 10 R & M Lofts - TX 0340-AU22-WACO BC H 1 1 14:52:30.00 1280.425 00:28:37 Yes
344 12 Tlc Loft - IL 0938-AU22-KIC BC H 1 1 14:56:05.00 1270.139 00:32:12 Yes
344 12 WarrenSawyersLoft - FL 0809-AU22-CBS BCSP H 1 1 14:56:05.00 1270.139 00:32:12 Yes
344,430 14 Lindbergh Flyers - MO 2709-AU22-NERP BC H 1 1 14:56:20.00 1269.428 00:32:27 Yes
344 15 Hosier Loft - NV 13804-AU22-JEDD BC H 1 1 14:56:29.00 1269.001 00:32:36 Yes
258 16 1Andrea2 - CA 17999-AU22-JEDD 20 BB H 1 1 14:58:39.00 1262.873 00:34:46 Yes
258-430 17 Jones Family Loft - TX 2119-AU22-JFL BC H 1 1 14:58:42.00 1262.732 00:34:49 Yes
258 18 Overdrive Loft - OK 11965-AU22-JEDD BC H 1 1 14:59:04.00 1261.701 00:35:11 Yes
258 19 Radd - OK 5679-AU22-ARPU 2087/1962 BA 2* BC H 1 2 15:01:28.00 1254.994 00:37:35 Yes
258 20 Roger Harlin - OK 0204-NP22-NMCF DC H 1 1 15:01:34.00 1254.716 00:37:41 Yes
258 21 TYPE R - WI 0026-AU22-TYPR 7th Ace X Nikki R BB H 1 1 15:01:41.00 1254.392 00:37:48 Yes
258 22 Overdrive Loft - OK 11957-AU22-JEDD BB H 1 2 15:01:44.00 1254.253 00:37:51 Yes
258 23 Yupeng Yang - MN 0231-AU22-VIK BB H 1 2 15:01:45.00 1254.207 00:37:52 Yes
258-344 24 Shallow Pockets Loft - OK 66202-AU22-ARPU BCSP H 1 2 15:01:46.00 1254.161 00:37:53 Yes
258 25 Jim Fox - OK 48117-AU22-ARPU DC H 1 1 15:03:56.00 1248.174 00:40:03 Yes
26 M & L Loft - TX 97010-AU22-ARPU BB H 1 2 15:07:29.00 1238.489 00:43:36 Yes
27 Radd - OK 5652-AU22-ARPU 1148/ 1814 BP 2* BB H 1 3 15:10:04.00 1231.535 00:46:11 Yes
28 Dave Conover - PA 7126-IF22-PHX (C.RIV) 9055-6555 (HEBB) BCPD C 1 2 15:10:06.00 1231.445 00:46:13 Yes
29 Himes Family Loft - OK 41373-AU22-FOYS DC H 1 1 15:10:08.00 1231.356 00:46:15 Yes
30 Jason Sieveking - MO 16517-AU22-AA TURBO BROOMSTICK BCWF H 1 1 15:10:17.00 1230.955 00:46:24 Yes
31 Jim Fox - OK 48124-AU22-ARPU GRIZ H 1 2 15:10:19.00 1230.866 00:46:26 Yes
8602gr 32 Dons Loft - SC 0315-IF22-CVR Tex & Pro GRIZ H 1 2 15:10:21.00 1230.777 00:46:28 Yes
33 Cbs & Steve - OK 0692-AU22-CBS BB H 1 2 15:12:02.00 1226.292 00:48:09 Yes
34 David Knightes - VT 22152-AU22-FOYS SIL H 1 1 15:12:03.00 1226.248 00:48:10 Yes
35 Radd - OK 0303-AU22-CBS DCSP H 1 4 15:12:21.00 1225.453 00:48:28 Yes
36 A P C Loft - TX 22280-AU22-APC BB H 1 1 15:13:34.00 1222.236 00:49:41 Yes
37 Skypirate Loft - OK 67743-AU22-ARPU BB H 1 1 15:13:35.00 1222.192 00:49:42 Yes
38 Roger Harlin - OK 0203-NP22-NMCF D H 1 2 15:13:49.00 1221.577 00:49:56 Yes
39 Shallow Pockets Loft - OK 66241-AU22-ARPU BB H 1 3 15:16:03.00 1215.724 00:52:10 Yes
40 Radd - OK 5625-AU22-ARPU 2230/41249 TB 2* BBSP H 1 5 15:16:10.00 1215.419 00:52:17 Yes
41 Taiwan Loft - TX 0050-AU22-FORM GRIZ H 1 1 15:16:13.00 1215.289 00:52:20 Yes
42 Jason Sieveking - MO 2546-AU22-NERP HOT MESS EXPRESS GRIZ H 1 2 15:16:25.00 1214.768 00:52:32 Yes
43 Shallow Pockets Loft - OK 66204-AU22-ARPU BC H 1 4 15:21:56.00 1200.568 00:58:03 Yes
44 Radd - OK 5636-AU22-ARPU 2230/41249 TB 2* BB H 1 6 15:29:29.00 1181.664 01:05:36 Yes
45 Overdrive Loft - OK 11956-AU22-JEDD SLAT H 1 3 15:31:07.00 1177.652 01:07:14 Yes
46 Ron Price - PA 1548-AU22-GSV BC H 0 1 15:33:48.00 1171.120 01:09:55 Missing
47 Dons Loft - SC 0327-IF22-CVR Bourg & Fab GRIZ H 1 3 15:33:52.00 1170.959 01:09:59 Yes
48 P. Berry - OK 48530-AU22-ARPU DC H 1 1 15:33:54.00 1170.878 01:10:01 Yes
49 Hi-Cal Connection - CA 0149-AU22-SD BB H 1 1 15:34:16.00 1169.992 01:10:23 Yes
50 Rocking R - TX 0174-AU22-GSWC SIL H 1 1 15:34:18.00 1169.911 01:10:25 Yes
51 Skypirate Loft - OK 67745-AU22-ARPU BB H 1 2 15:34:36.00 1169.187 01:10:43 Yes
52 Shallow Pockets Loft - OK 66211-AU22-ARPU GRIZ H 1 5 15:34:53.00 1168.504 01:11:00 Yes
53 LFL Norman Lewellen - HI 16104-AU22-JEDD GRIZ H 1 1 15:35:39.00 1166.659 01:11:46 Yes
54 Radd - OK 5684-AU22-ARPU 1538/41250 Ru 3 BC H 1 7 15:38:33.00 1159.734 01:14:40 Yes
55 White Eagle Lofts - IL 0002-AU22-WEL BB H 1 1 15:41:30.00 1152.773 01:17:37 Yes
56 Taiwan Loft - TX 0044-AU22-FORM BBWF H 1 2 15:48:16.00 1137.118 01:24:23 Yes
57 Bill and Danny - UT 1244-IF22-FSC BB H 1 1 15:48:57.00 1135.561 01:25:04 Yes
58 Ander Yen - IL 26547-AU22-ARPU BB H 1 1 15:49:52.00 1133.478 01:25:59 Yes
59 Dave Conover - PA 7139-IF22-PHX (VE/LUDO) 9092-8165 (HEBB SIL H 1 3 15:57:12.00 1117.090 01:33:19 Yes
60 Yupeng Yang - MN 0232-AU22-VIK BB H 1 3 15:59:22.00 1112.338 01:35:29 Yes
61 David Knightes - VT 22149-AU22-FOYS GRIZ H 1 2 16:06:03.00 1097.932 01:42:10 Yes
62 Mcculloh Loft - OK 67339-AU22-ARPU Eagle BCSP H 1 1 16:12:37.00 1084.137 01:48:44 Yes
63 Walt Stammer - CA 1053-AU22-PR DC H 1 2 16:12:41.00 1083.999 01:48:48 Yes
64 Czechura Loft - IL 8606-AU22-CHIC BC H 1 1 16:22:50.00 1063.349 01:58:57 Yes
65 Ander Yen - IL 26537-AU22-ARPU DC H 1 2 16:36:46.00 1036.252 02:12:53 Yes
66 Garde Loft - NM 2237-AU22-GARD BB H 1 1 16:36:53.00 1036.031 02:13:00 Yes
66 TYPE R - WI 0011-AU22-TYPR Russell X AFL 286 BLUE H 1 2 16:36:53.00 1036.031 02:13:00 Yes
68 Loux/Hedge - KS 0237-AU22-AIRC BB H 1 1 16:43:35.00 1023.492 02:19:42 Yes
69 Kwan Loft - CA 0065-AU22-KWAN GRIZ H 1 1 16:58:13.00 997.134 02:34:20 Yes
70 Jim Fox - OK 48103-AU22-ARPU DCPD H 1 3 17:03:25.00 988.091 02:39:32 Yes
71 Valhalla Lofts - TN 2241-AU22-VALH CRAZY MOON DCSP H 1 1 17:03:27.00 988.034 02:39:34 Yes
72 Dons Loft - SC 0314-IF22-CVR Tex & Pro GRIZ H 1 4 17:09:33.00 977.634 02:45:40 Yes
73 Ecker Ranch - MD 1671-AU22-GSV BB H 1 2 17:27:26.00 948.370 03:03:33 Yes
74 Reilly/Shonts - OK 7503-AU22-ARPU BC H 1 1 2022-11-22 07:33:10.00 846.686 04:15:18 Yes
75 A P C Loft - TX 22257-AU22-APC BB C 1 2 2022-11-22 08:11:51.00 800.416 04:53:59 Yes
76 A P C Loft - TX 22223-AU22-APC GRIZ H 1 3 2022-11-22 08:37:47.00 772.129 05:19:55 Yes
77 Loux/Hedge - KS 0254-AU22-HEDG DC H 1 2 2022-11-22 08:42:54.00 766.782 05:25:02 Yes
78 TYPE R - WI 0035-AU22-TYPR Konbird X Mesopotamia BB H 1 3 2022-11-22 08:46:30.00 763.064 05:28:38 Yes
79 Reilly/Shonts - OK 7504-AU22-ARPU BB H 1 2 2022-11-22 08:46:52.00 762.688 05:29:00 Yes
80 Overdrive Loft - OK 11952-AU22-JEDD BB H 1 4 2022-11-22 08:46:57.00 762.602 05:29:05 Yes
81 M & L Loft - TX 97011-AU22-ARPU BB H 1 3 2022-11-22 08:51:37.00 757.842 05:33:45 Yes
82 Jason Eclair - OK 54857-AU22-ARPU BC H 1 1 2022-11-22 09:00:13.00 749.224 05:42:21 Yes
83 Polson Loft - CO 0247-AU22-POL MISS OKLAHOMA BB H 1 1 2022-11-22 09:10:43.00 738.964 05:52:51 Yes
84 Reilly/Crowder - OK 7535-AU22-ARPU BB H 1 1 2022-11-22 09:24:07.00 726.271 06:06:15 Yes
85 Black Mountain Loft - NV 31255-AU22-ARPU Vegas Vicky SIL H 1 1 2022-11-22 09:24:34.00 725.852 06:06:42 Yes
86 High Voltage - HI 0023-AU22-KAU "HILO" DC C 1 1 2022-11-22 09:31:44.00 719.248 06:13:52 Yes
87 Valhalla Lofts - TN 2256-AU22-VALH ALBEIT DC C 1 2 2022-11-22 09:49:23.00 703.486 06:31:31 Yes
88 Richard Reddick - OK 2095-AU22-ADA GRIZ H 1 1 2022-11-22 09:49:30.00 703.385 06:31:38 Yes
89 Lindbergh Flyers - MO 2157-AU22-NERP BC H 1 2 2022-11-22 09:50:06.00 702.861 06:32:14 Yes
90 Pf Flyers - OK 0634-AU22-TULS BC H 1 1 2022-11-22 09:54:04.00 699.419 06:36:12 Yes
91 LFL Norman Lewellen - HI 2107-AU22-NIC BB H 1 2 2022-11-22 10:02:05.00 692.566 06:44:13 Yes
92 Blue Thistle Ranch - OK 71422-AU22-ARPU BC H 1 1 2022-11-22 10:04:55.00 690.175 06:47:03 Yes
93 Tk Loft - CA 0036-AU22-TK BB H 1 1 2022-11-22 10:05:27.00 689.727 06:47:35 Yes
94 Jim Fox - OK 48106-AU22-ARPU GRIZ H 1 4 2022-11-22 10:10:47.00 685.278 06:52:55 Yes
95 Garde Loft - NM 2233-AU22-GARD GRIZ H 1 2 2022-11-22 10:14:08.00 682.513 06:56:16 Yes
96 TYPE R - WI 0018-AU22-TYPR Konbird X Mesopotamia BB H 1 4 2022-11-22 11:04:39.00 643.363 07:46:47 Yes
97 Willow Wind - IL 0766-AU22-FOYS GRIZ H 1 1 2022-11-22 11:10:07.00 639.394 07:52:15 Yes
98 Harmony Loft - LA 1192-AU22-HARM BB H 1 1 2022-11-22 11:10:52.00 638.853 07:53:00 Yes
99 Hosier Loft - NV 13802-AU22-JEDD BB H 1 2 2022-11-22 11:24:05.00 629.472 08:06:13 Yes
100 Reilly/Shonts - OK 0899-AU22-CBS GRIZ H 1 3 2022-11-22 11:31:13.00 624.523 08:13:21 Yes

There are 133 bird records

Note: These Race Results are unofficial and subject to change until verified by the Race Committee and declared final.